TimeCDT,TemperatureF,Dew PointF,Humidity,Sea Level PressureIn,VisibilityMPH,Wind Direction,Wind SpeedMPH,Gust SpeedMPH,PrecipitationIn,Events,Conditions,WindDirDegrees,DateUTC
12:14 AM,73.0,59.9,63,30.04,10.0,NNE,8.1,-,N/A,,Clear,30,2013-08-22 05:14:00
12:33 AM,72.5,60.1,65,30.04,10.0,NE,9.2,-,N/A,,Clear,40,2013-08-22 05:33:00
12:53 AM,72.7,59.9,64,30.03,10.0,NNE,9.2,-,N/A,,Clear,30,2013-08-22 05:53:00
1:14 AM,72.1,59.5,64,30.05,10.0,NE,8.1,-,N/A,,Clear,40,2013-08-22 06:14:00
1:33 AM,71.2,59.5,66,30.07,10.0,NE,6.9,-,N/A,,Clear,40,2013-08-22 06:33:00
1:53 AM,70.9,59.5,67,30.07,10.0,NNE,9.2,-,N/A,,Scattered Clouds,30,2013-08-22 06:53:00
2:13 AM,71.6,59.4,65,30.06,10.0,NE,9.2,-,N/A,,Scattered Clouds,40,2013-08-22 07:13:00
2:33 AM,70.2,59.4,69,30.06,10.0,NE,9.2,-,N/A,,Scattered Clouds,40,2013-08-22 07:33:00
2:53 AM,70.3,59.2,68,30.06,10.0,NE,8.1,-,N/A,,Scattered Clouds,40,2013-08-22 07:53:00
3:14 AM,70.2,59.0,68,30.06,10.0,NNE,8.1,-,N/A,,Mostly Cloudy,30,2013-08-22 08:14:00
3:33 AM,70.2,59.0,68,30.07,10.0,NE,10.4,-,N/A,,Overcast,40,2013-08-22 08:33:00
3:53 AM,69.4,58.3,68,30.08,10.0,NNE,9.2,-,N/A,,Scattered Clouds,30,2013-08-22 08:53:00
4:14 AM,69.3,57.4,66,30.09,10.0,NNE,11.5,-,N/A,,Scattered Clouds,30,2013-08-22 09:14:00
4:33 AM,69.1,57.2,66,30.09,10.0,NNE,10.4,-,N/A,,Scattered Clouds,30,2013-08-22 09:33:00
4:53 AM,68.5,56.7,66,30.08,10.0,NNE,10.4,17.3,N/A,,Scattered Clouds,20,2013-08-22 09:53:00
5:14 AM,68.7,55.8,63,30.09,10.0,NNE,9.2,-,N/A,,Clear,20,2013-08-22 10:14:00
5:33 AM,68.2,55.8,64,30.09,10.0,NNE,13.8,19.6,N/A,,Scattered Clouds,20,2013-08-22 10:33:00
5:54 AM,67.5,54.7,64,30.08,10.0,NNE,12.7,18.4,N/A,,Scattered Clouds,20,2013-08-22 10:54:00
6:13 AM,67.3,53.6,61,30.08,10.0,NNE,13.8,20.7,N/A,,Clear,30,2013-08-22 11:13:00
6:34 AM,67.3,51.4,57,30.09,10.0,NNE,17.3,25.3,N/A,,Clear,30,2013-08-22 11:34:00
6:54 AM,66.6,51.1,57,30.11,10.0,NE,13.8,20.7,N/A,,Clear,40,2013-08-22 11:54:00
7:13 AM,65.8,51.3,59,30.12,10.0,NE,13.8,19.6,N/A,,Clear,40,2013-08-22 12:13:00
7:33 AM,65.7,51.1,59,30.12,10.0,NE,12.7,17.3,N/A,,Clear,40,2013-08-22 12:33:00
7:54 AM,66.2,51.1,58,30.14,10.0,ENE,11.5,-,N/A,,Clear,60,2013-08-22 12:54:00
8:13 AM,65.8,51.8,60,30.14,10.0,NE,10.4,-,N/A,,Clear,40,2013-08-22 13:13:00
8:34 AM,66.7,51.8,59,30.15,10.0,NE,9.2,-,N/A,,Clear,50,2013-08-22 13:34:00
8:54 AM,67.8,52.2,57,30.14,10.0,NE,9.2,-,N/A,,Clear,50,2013-08-22 13:54:00
9:13 AM,70.0,52.0,53,30.15,10.0,NE,10.4,-,N/A,,Mostly Cloudy,50,2013-08-22 14:13:00
9:33 AM,70.7,52.3,52,30.14,10.0,ENE,11.5,18.4,N/A,,Mostly Cloudy,60,2013-08-22 14:33:00
9:54 AM,71.6,52.5,51,30.14,10.0,NE,10.4,17.3,N/A,,Scattered Clouds,50,2013-08-22 14:54:00
10:14 AM,73.2,52.2,48,30.14,10.0,NE,12.7,19.6,N/A,,Clear,40,2013-08-22 15:14:00
10:33 AM,74.3,52.3,46,30.14,10.0,ENE,12.7,-,N/A,,Clear,60,2013-08-22 15:33:00
10:53 AM,75.2,52.9,46,30.14,10.0,NE,12.7,16.1,N/A,,Clear,40,2013-08-22 15:53:00
11:14 AM,76.1,53.1,45,30.14,10.0,NE,13.8,-,N/A,,Clear,40,2013-08-22 16:14:00
11:33 AM,76.8,53.6,44,30.14,10.0,NE,12.7,-,N/A,,Clear,40,2013-08-22 16:33:00
11:53 AM,77.2,53.8,44,30.14,10.0,NE,11.5,17.3,N/A,,Clear,50,2013-08-22 16:53:00
12:13 PM,77.9,53.4,43,30.14,10.0,NE,12.7,18.4,N/A,,Clear,40,2013-08-22 17:13:00
12:32 PM,78.6,53.4,42,30.14,10.0,NNE,9.2,-,N/A,,Clear,20,2013-08-22 17:32:00
12:53 PM,79.3,51.4,38,30.14,10.0,ENE,10.4,-,N/A,,Clear,70,2013-08-22 17:53:00
1:13 PM,80.2,53.2,39,30.14,10.0,East,8.1,-,N/A,,Clear,80,2013-08-22 18:13:00
1:33 PM,80.6,52.0,37,30.14,10.0,ENE,10.4,-,N/A,,Clear,70,2013-08-22 18:33:00
1:53 PM,81.5,54.0,39,30.14,10.0,NE,10.4,-,N/A,,Clear,50,2013-08-22 18:53:00
2:13 PM,81.9,54.9,39,30.14,10.0,NE,9.2,-,N/A,,Clear,40,2013-08-22 19:13:00
2:33 PM,82.2,54.9,39,30.13,10.0,NE,8.1,-,N/A,,Clear,40,2013-08-22 19:33:00
2:53 PM,81.5,54.3,39,30.13,10.0,ENE,8.1,-,N/A,,Clear,70,2013-08-22 19:53:00
3:14 PM,81.5,55.2,40,30.13,10.0,North,6.9,-,N/A,,Clear,360,2013-08-22 20:14:00
3:33 PM,81.9,55.0,40,30.13,10.0,NE,8.1,-,N/A,,Clear,50,2013-08-22 20:33:00
3:53 PM,82.2,55.2,39,30.13,10.0,NNE,5.8,-,N/A,,Clear,30,2013-08-22 20:53:00
4:14 PM,82.9,54.3,37,30.13,10.0,ENE,6.9,-,N/A,,Clear,70,2013-08-22 21:14:00
4:33 PM,82.8,54.1,37,30.13,10.0,East,4.6,-,N/A,,Clear,90,2013-08-22 21:33:00
4:54 PM,82.4,55.9,40,30.12,10.0,East,4.6,-,N/A,,Clear,90,2013-08-22 21:54:00
5:14 PM,82.0,54.7,39,30.12,10.0,ENE,4.6,-,N/A,,Clear,70,2013-08-22 22:14:00
5:34 PM,82.6,54.9,38,30.12,10.0,ENE,5.8,-,N/A,,Clear,70,2013-08-22 22:34:00
5:54 PM,81.7,56.1,41,30.12,10.0,ESE,3.5,-,N/A,,Clear,110,2013-08-22 22:54:00
6:14 PM,80.6,58.6,47,30.12,10.0,SSE,3.5,-,N/A,,Clear,150,2013-08-22 23:14:00
6:33 PM,79.9,59.0,49,30.12,10.0,Calm,Calm,-,N/A,,Clear,0,2013-08-22 23:33:00
6:54 PM,79.0,59.4,51,30.11,10.0,SSE,3.5,-,N/A,,Clear,160,2013-08-22 23:54:00
7:13 PM,78.4,58.3,50,30.11,10.0,Calm,Calm,-,N/A,,Clear,0,2013-08-23 00:13:00
7:33 PM,75.2,64.2,69,30.11,10.0,Calm,Calm,-,N/A,,Clear,0,2013-08-23 00:33:00
7:54 PM,71.8,65.5,80,30.12,10.0,Calm,Calm,-,N/A,,Clear,0,2013-08-23 00:54:00
8:13 PM,68.9,64.4,86,30.12,7.0,Calm,Calm,-,N/A,,Clear,0,2013-08-23 01:13:00
8:34 PM,67.3,63.9,89,30.12,10.0,Calm,Calm,-,N/A,,Clear,0,2013-08-23 01:34:00
8:53 PM,66.6,62.6,87,30.13,10.0,Calm,Calm,-,N/A,,Clear,0,2013-08-23 01:53:00
9:13 PM,64.6,61.7,90,30.13,10.0,Calm,Calm,-,N/A,,Clear,0,2013-08-23 02:13:00
9:34 PM,63.5,60.6,90,30.14,10.0,Calm,Calm,-,N/A,,Clear,0,2013-08-23 02:34:00
9:53 PM,62.1,60.4,94,30.14,10.0,Calm,Calm,-,N/A,,Clear,0,2013-08-23 02:53:00
10:13 PM,60.6,59.5,96,30.14,10.0,Calm,Calm,-,N/A,,Clear,0,2013-08-23 03:13:00
10:34 PM,61.9,59.7,93,30.14,10.0,Calm,Calm,-,N/A,,Clear,0,2013-08-23 03:34:00
10:53 PM,59.9,57.6,92,30.14,10.0,Calm,Calm,-,N/A,,Clear,0,2013-08-23 03:53:00
11:14 PM,60.6,58.3,92,30.14,10.0,ESE,4.6,-,N/A,,Clear,110,2013-08-23 04:14:00
11:34 PM,61.3,58.5,90,30.14,10.0,Calm,Calm,-,N/A,,Clear,0,2013-08-23 04:34:00
11:53 PM,61.0,58.3,91,30.15,10.0,NE,3.5,-,N/A,,Clear,40,2013-08-23 04:53:00